Location: Avenches
(46.8809°N, 7.0410°E)
Time: 10:49:32
(UTC+00:00)

SL-16 R/B - Visible Passes

Search period start: 11 August 2020 00:00
Search period end: 21 August 2020 00:00
Orbit: 839 x 850 km, 71.0° (Epoch: 10 August)

Date Brightness Start Highest point End Pass type
(mag) Time Alt. Az. Time Alt. Az. Time Alt. Az.
11 Aug 2.1 01:04:41 10° NNW 01:10:25 84° WSW 01:11:42 55° SSE visible
11 Aug 3.9 02:51:02 10° WNW 02:53:31 13° W 02:53:31 13° W visible
11 Aug 4.3 23:07:12 10° N 23:11:25 21° NE 23:15:15 11° E visible
12 Aug 2.1 00:50:35 10° NNW 00:56:19 86° WSW 00:57:04 68° SSE visible
12 Aug 4.0 02:36:47 10° WNW 02:38:53 14° W 02:38:53 14° W visible
12 Aug 4.3 22:53:06 10° N 22:57:17 20° NE 23:00:44 12° E visible
13 Aug 2.0 00:36:28 10° NNW 00:42:12 88° WSW 00:42:34 79° SSE visible
13 Aug 4.0 02:22:33 10° WNW 02:24:24 14° W 02:24:24 14° W visible
13 Aug 4.3 22:39:02 10° N 22:43:09 20° NE 22:46:19 13° E visible
14 Aug 2.1 00:22:22 10° NNW 00:28:06 89° ENE 00:28:09 88° ESE visible
14 Aug 4.1 02:08:20 10° WNW 02:09:59 14° W 02:09:59 14° W visible
14 Aug 4.3 22:24:58 10° N 22:29:00 19° NE 22:31:58 13° ENE visible
15 Aug 2.1 00:08:16 10° NNW 00:13:48 83° N 00:13:48 83° N visible
15 Aug 4.1 01:54:07 10° WNW 01:55:37 14° WNW 01:55:37 14° WNW visible
15 Aug 4.3 22:10:54 10° N 22:14:53 19° NE 22:17:40 14° ENE visible
15 Aug 2.2 23:54:09 10° NNW 23:59:31 78° N 23:59:31 78° N visible
16 Aug 4.2 01:39:55 10° WNW 01:41:21 14° WNW 01:41:21 14° WNW visible
16 Aug 4.3 21:56:50 10° N 22:00:44 18° NE 22:03:27 14° ENE visible
16 Aug 2.3 23:40:03 10° NNW 23:45:18 74° N 23:45:18 74° N visible
17 Aug 4.2 01:25:43 10° WNW 01:27:08 14° WNW 01:27:08 14° WNW visible
17 Aug 4.3 21:42:46 10° N 21:46:36 18° NE 21:49:16 13° ENE visible
17 Aug 2.3 23:25:57 10° NNW 23:31:07 71° N 23:31:07 71° N visible
18 Aug 4.2 01:11:31 10° WNW 01:12:58 14° WNW 01:12:58 14° WNW visible
18 Aug 4.3 21:28:41 10° N 21:32:27 18° NE 21:35:08 13° ENE visible
18 Aug 2.4 23:11:50 10° NNW 23:16:59 69° N 23:16:59 69° N visible
19 Aug 4.3 00:57:20 10° WNW 00:58:50 15° WNW 00:58:50 15° WNW visible
19 Aug 4.3 21:14:38 10° N 21:18:19 17° NE 21:21:02 13° ENE visible
19 Aug 2.4 22:57:44 10° NNW 23:02:53 68° NNE 23:02:53 68° NNE visible
20 Aug 4.3 00:43:09 10° WNW 00:44:44 15° WNW 00:44:44 15° WNW visible
20 Aug 4.3 21:00:34 10° N 21:04:11 17° NE 21:06:58 12° ENE visible
20 Aug 2.4 22:43:39 10° NNW 22:48:49 67° NNE 22:48:49 67° NNE visible
